Regional Weather Roundup
Issued by NWS Wakefield, VA

Home | Current Version | Previous Version | Graphics & Text | Print | Product List | Glossary On
Versions: 1 2 3 4 5 6 7 8 9 10 11 12 13 14 15 16 17 18 19 20 21 22 23 24 25 26 27 28 29 30 31 32 33 34 35 36 37 38 39 40 41 42 43 44 45 46 47 48 49 50
648
ASUS41 KAKQ 202215
RWRAKQ

REGIONAL WEATHER ROUNDUP
NATIONAL WEATHER SERVICE WAKEFIELD VA
600 PM EDT FRI APR 20 2018

Note: "fair" indicates few or no clouds below 12,000 feet with no
significant weather and/or obstructions to visibility. * = Denotes
station may not report precipitation (e.g., rain,snow,etc.),
thunder or fog.

VAZ042-051-052>054-056-202300-
NORTHERN VIRGINIA

CITY           SKY/WX    TMP DP  RH WIND       PRES   REMARKS
WASH NATIONAL  FAIR      60  26  27 N18       30.28S
DULLES         FAIR      59  24  26 NW14G24   30.28R
FORT BELVOIR   FAIR      61  24  24 NW13      30.27R
QUANTICO       FAIR      62  26  25 N16       30.29R
FREDERICKSBRG* FAIR      62  29  28 NW9       30.27R
STAFFORD*      FAIR      61  26  25 N12       30.31R
WARRENTON      FAIR      62  17  17 NW9G16    30.28R
CULPEPER*      FAIR      61  19  19 N13G22    30.29R
MANASSAS*      FAIR      60  28  29 NW14      30.28S
LEESBURG*      FAIR      59  30  33 N17G23    30.29R
WINCHESTER     FAIR      55  27  33 NW18G24   30.31R
FRONT ROYAL*   FAIR      59  27  29 NW10G18   30.28S
LURAY*         FAIR      59  23  25 NW10      30.29S
$$

VAZ048-049-060>072-079>083-202300-
CENTRAL AND SOUTH CENTRAL VIRGINIA

CITY           SKY/WX    TMP DP  RH WIND       PRES   REMARKS
RICHMOND       FAIR      64  22  20 NW13      30.27R
CHESTERFIELD*  FAIR      63  23  21 NW10      30.27S
PETERSBURG*    FAIR      62  16  16 N10       30.28R
HANOVER        FAIR      63  23  21 VRB5      30.28S
TAPPAHANNOCK*  FAIR      61  27  27 NW8       30.28S
QUINTON*       FAIR      61  23  23 NW10G20   30.26S
CHARLOTTSVILLE FAIR      64  19  17 N9        30.27S
GORDONSVILLE*  FAIR      62  21  20 N6        30.27S
ORANGE*        FAIR      61  23  23 NW9       30.27S
LOUISA*        FAIR      62  20  20 NW8       30.31S
BUMPASS*       FAIR      61  17  17 NW3       30.27R
FARMVILLE*     FAIR      65  11  12 CALM      30.26S
CREWE*         FAIR      63  21  20 N7        30.27R
FORT PICKETT*  FAIR      63  21  20 NW9       30.27S
CHASE CITY*    FAIR      62  21  20 W5        30.28S
CLARKSVILLE*   FAIR      63  21  20 N7        30.28S
SOUTH HILL*    FAIR      61  24  23 CALM      30.33S
LAWRENCEVILLE* FAIR      62  19  18 NW8       30.27S
EMPORIA*       FAIR      61  25  25 NW7       30.29S
$$

VAZ088>098-202300-
SOUTHEAST VIRGINIA

CITY           SKY/WX    TMP DP  RH WIND       PRES   REMARKS
NORFOLK        FAIR      55  31  39 NE7       30.27S
VIRGINIA BEACH FAIR      56  30  37 NE9       30.27S
NORFOLK NAVAL  FAIR      55  32  41 E7        30.29R
WEST POINT*    FAIR      61  21  20 NW9       30.28S
SALUDA*        FAIR      58  31  35 NW9       30.27S
NEWPORT NEWS   FAIR      61  27  27 N10       30.26S
LANGLEY AFB    FAIR      56  35  45 E8        30.27S
FORT EUSTIS    FAIR      61  29  30 NW9       30.24S
WILLIAMSBURG*  FAIR      64  18  16 NW7       30.27S
HR EXEC AP*    FAIR      62  26  25 W7        30.27S
FRANKLIN*      FAIR      61  23  23 NW10      30.28S
US460-WAKEFLD  FAIR      63  22  20 VRB5      30.27S
$$

VAZ020-022-025-037-045-202300-
WEST CENTRAL AND SOUTHWEST VIRGINIA

CITY           SKY/WX    TMP DP  RH WIND       PRES   REMARKS
STAUNTON*      FAIR      59  22  23 N10       30.30S
WAYNESBORO*    FAIR      58  19  22 NE9       30.27S
HOT SPRINGS VA FAIR      50   6  16 NW10G17   30.29S
LYNCHBURG      FAIR      63  13  14 CALM      30.26F
DANVILLE       FAIR      64  21  19 N6        30.28S
SOUTH BOSTON*  FAIR      64  15  15 N8        30.28S
MARTINSVILLE   FAIR      64  20  18 NW9       30.30F
ROANOKE        FAIR      63  20  19 NW10      30.29S
BLACKSBURG     FAIR      59  20  22 NW8       30.32S
DUBLIN*        FAIR      58  17  20 N8        30.32S
MARION*        FAIR      60  19  20 NW10      30.33S
HILLSVILLE*    FAIR      57  12  17 N7        30.29R
RICHLANDS*     FAIR     N/A N/A N/A NW5       30.33S
WISE*          FAIR      57  27  30 NW7       30.35S
ABINGDON*      FAIR      62  21  20 CALM      30.32R
$$

MDZ021>025-VAZ099-100-202300-
SOUTHERN MARYLAND AND THE DELMARVA PENINSULA

CITY           SKY/WX    TMP DP  RH WIND       PRES   REMARKS
PATUXENT RIVER FAIR      61  29  29 NW14      30.27R
BAY BRIDGE APT FAIR      55  34  44 N9        30.27S
LEONARDTOWN    FAIR      57  27  30 NW6       30.28R
DOVER          FAIR      55  28  35 NW15G22   30.26R
GEORGETOWN     FAIR      57  27  31 NW9       30.26R
EASTON         SUNNY     57  27  30 N12G18    30.30S
CAMBRIDGE      SUNNY     55  28  35 NW10      30.28R
SALISBURY      FAIR      56  28  34 NW12G24   30.26S
TANGIER        FAIR      55  30  38 N8        30.28S
OCEAN CITY     FAIR      55  28  35 NW15G21   30.27R
WALLOPS ISLAND FAIR      57  29  34 NW14      30.27R
ACCOMACK*      FAIR      55  31  40 N7G18     30.28S
$$

NCZ012>017-030>032-202300-
NORTH CENTRAL AND EASTERN NORTH CAROLINA

CITY           SKY/WX    TMP DP  RH WIND       PRES   REMARKS
ROANOKE RAPIDS FAIR      61  28  29 NW7       30.28S
RALEIGH        FAIR      64  28  25 N6        30.28S
ELIZABETH CITY FAIR      55  39  54 SE13      30.29R
AHOSKIE*       FAIR      60  24  25 NW6       30.28S
EDENTON*       FAIR      63  28  26 NW7       30.28S
CURRITUCK*     NOT AVBL
KILL DEVIL HLS NOT AVBL
MANTEO         FAIR      50  32  50 NE10      30.30S
CAPE HATTERAS  FAIR      53  35  50 VRB7      30.30R
TARBORO*       NOT AVBL
GOLDSBORO      SUNNY     65  26  23 N6        30.26S
WASHINGTON     FAIR      62  26  24 N6        30.28S
GREENVILLE     FAIR      63  25  23 N9        30.28S
NEW BERN       FAIR      61  32  33 NW7       30.28S
WILMINGTON     FAIR      61  36  39 SE8       30.27S
$$

VAZ048-202300-
ELSEWHERE

CITY           SKY/WX    TMP DP  RH WIND       PRES   REMARKS
HARRISBURG PA  FAIR      56  26  31 NW18      30.25S
BALTIMORE      FAIR      58  27  30 NW9G22    30.26R
ANNAPOLIS      FAIR      59  31  34 NW13      30.26S
ANDREWS AFB    FAIR      58  26  29 NW14G22   30.27R
PHILADELPHIA   FAIR      53  24  32 NW16G25   30.26R
HENDERSON NC   FAIR      60  18  19 NW5       30.28S
GREENSBORO     FAIR      66  21  18 CALM      30.26F
ROCKY MOUNT    FAIR      63  24  22 NW8       30.28S
$$

VAZ100-202300-
MARINE

STATION/POSITION TIME  TEMP    WIND        PRES    WAVE   SWELL
                       AIR SEA DIR/SP/G            HT/PER HT/PER
                 (UTC) (F)     (DEG/KT/KT) (MB)    (FT/S) (FT/S)
BRANDYWINE LGT   2142   51     340/ 13/ 16 1025.0R
CAPE MAY NJ      2136   51 50  320/ 13/ 17 1024.1R
LEWES DE         2142   52 50  340/ 14/ 17 1024.5R
15NM E FENWICK I 2150   46 46  350/ 10/ 10 1025.2R   2/ 4   2/13
OCEAN-CITY-INLET 2142   54 51  340/ 11/ 13 1025.3R
WACHAPREAGUE VA  2142   54 58  350/  6/ 16 1025.2R
THOMAS POINT MD  2200   55 51  350/ 11/ 13 1025.9R
GOOSES REEF MD   2200   55      40/  8/ 12 1025.6
COVE POINT MD    2142   51      50/  5/  6 1025.7R
SOLOMONS ISLAND  2142   57 53  320/ 10/ 13 1024.6R
BISHOPS HEAD MD  2142   56 56  320/ 12/ 18 1025.5R
PINEY POINT MD   2142          320/ 11/ 13   N/A
POTOMAC MD       2200   52 53  100/  6/  8 1026.5    1/ 2
CAMBRIDGE MD     2142   56 55              1025.9R
LEWISETTA VA     2142   57 53  320/ 10/ 12 1025.0S
RAPPAHANNOCK LGT 2142           10/  8/ 10 1025.9F
YORK RVR RNG VA  2142   51     100/ 10/ 11 1025.7R
YORKTOWN VA      2142   59 56  330/ 13/ 17 1024.6F
DOMINION TERM VA 2142   57     100/  2/  8 1025.2R
KIPTOPEKE VA     2142      54  350/  4/  9   N/A
CAPE HENRY VA    2142   52      10/  9/ 10   N/A
WILLOUBY STN VA  2142   52      90/  9/  9 1025.2R
S CRANEY ISL VA  2142   58     360/  7/ 11 1024.9R
CAPE HENRY BUOY  2200      51                N/A     2/ 4
64NM E OF VA BCH 2150   47 49  330/ 10/ 12 1026.4R   4/ 8   3/ 8
DUCK PIER NC     2142   51 52   90/  7/  8 1025.5R
44100 DUCK FRF   2145      50                N/A     3/ 6
44056 DUCK FRF   2200      51                N/A     3/ 5
OREGON INLET NC  2142   49 54   40/ 10/ 13 1025.7S
HATTERAS NC      2142   51 60   50/  8/ 12 1025.7R
DIAMOND SHLS NC  2200   51 70   20/ 10/ 16 1026.4
CAPE LOOKOUT NC  2200          130/  8/ 10 1025.7R
$$




USA.gov is the U.S. government's official web portal to all federal, state and local government web resources and services.